Regional Weather Roundup
Issued by NWS

Home | Current Version | Previous Version | Text Only | Print | Product List | Glossary On
Versions: 1 2 3 4 5 6 7 8 9 10 11 12 13 14 15 16 17 18 19 20 21 22 23 24 25 26 27 28 29 30 31 32 33 34 35 36 37 38 39 40 41 42 43 44 45 46 47 48 49 50
728
ASUS46 KPQR 111510
RWROR

OREGON REGIONAL WEATHER ROUNDUP
NATIONAL WEATHER SERVICE PORTLAND OR
700 AM PST THU FEB 11 2016

NOTE: "FAIR" INDICATES FEW OR NO CLOUDS BELOW 12,000 FEET WITH
NO SIGNIFICANT WEATHER AND/OR OBSTRUCTIONS TO VISIBILITY.

ORZ001>013-111600-
NORTHWEST OREGON


CITY           SKY/WX    TMP DP  RH WIND       PRES   REMARKS
ASTORIA        CLOUDY    51  50  96 SE6       30.09F
NEWPORT        CLOUDY    54  50  87 E7          N/A
PORTLAND       CLOUDY    49  46  90 CALM      30.16S
VANCOUVER WA   CLOUDY    47  46  97 CALM      30.16S
SCAPPOOSE      LGT RAIN  48  47  96 CALM      30.15S
HILLSBORO      CLOUDY    48  47  96 CALM      30.15S
AURORA         CLOUDY    51  48  89 CALM      30.16S
MCMINNVILLE    CLOUDY    50  48  93 CALM      30.15F
SALEM          CLOUDY    50  47  89 SE5       30.15S
CORVALLIS      CLOUDY    50  46  87 CALM      30.17R
EUGENE         CLOUDY    49  47  93 SW3       30.17R
$$

ORZ021-028-111600-
SOUTHWEST OREGON


CITY           SKY/WX    TMP DP  RH WIND       PRES   REMARKS
NORTH BEND     CLOUDY    54  52  94 SE5       30.13F
BROOKINGS      CLOUDY    51  50  96 SE7       30.12S
ROSEBURG       CLOUDY    50  48  93 CALM      30.17S
SEXTON SUMMIT  CLOUDY    52  31  44 S6        30.17F
MEDFORD        CLOUDY    47  43  86 CALM      30.17S
$$

ORZ014>016-041-111600-
COLUMBIA GORGE


CITY           SKY/WX    TMP DP  RH WIND       PRES   REMARKS
TROUTDALE      CLOUDY    54  43  66 E18       30.14F
THE DALLES     CLOUDY    42  39  89 CALM      30.28F
$$

ORZ029>031-041-044-049-050-061>064-502-503-505>511-111600-
EASTERN OREGON


CITY           SKY/WX    TMP DP  RH WIND       PRES   REMARKS
REDMOND        CLOUDY    38  34  85 CALM      30.22F
BEND           CLOUDY    39  34  81 CALM      30.22F
PRINEVILLE     CLOUDY    41  36  81 CALM      30.23S
KLAMATH FALLS  CLOUDY    38  33  82 N3        30.24R
LAKEVIEW       MOCLDY    28  25  86 N6        30.28F WCI  22
HERMISTON      CLOUDY    45  39  79 NE9       30.26S
PENDLETON      CLOUDY    45  36  70 NE10      30.23S
JOHN DAY       CLOUDY    45  33  62 E7        30.26S
MEACHAM        CLOUDY    37  29  72 CALM      30.26S
LA GRANDE      CLOUDY    36  28  75 N3        30.31F
BAKER CITY     CLOUDY    32  30  92 CALM      30.36F
BURNS          CLOUDY    27  24  89 N3        30.31F
ROME             N/A     29  27  92 CALM      30.33R
ONTARIO        CLOUDY    33  30  88 CALM      30.44S FOG
$$




USA.gov is the U.S. government's official web portal to all federal, state and local government web resources and services.